Regional Weather Roundup
Issued by NWS Green Bay, WI

Home | Current Version | Previous Version | Graphics & Text | Print | Product List | Glossary Off
Versions: 1 2 3 4 5 6 7 8 9 10 11 12 13 14 15 16 17 18 19 20 21 22 23 24 25 26 27 28 29 30 31 32 33 34 35 36 37 38 39 40 41 42 43 44 45 46 47 48 49 50

000
ASUS43 KGRB 261810
RWRGRB

NORTH-CENTRAL AND NORTHEAST WISCONSIN REGIONAL WEATHER ROUNDUP
NATIONAL WEATHER SERVICE GREEN BAY WI
1200 PM CST MON JAN 26 2015

WIZ005-009-010>012-018-019-261900-
NORTH CENTRAL WISCONSIN

CITY           SKY/WX    TMP DP  RH WIND       PRES   REMARKS
IRONWOOD       CLOUDY    19  16  86 S5        29.68S
MANITOWISH WTR LGT SNOW  17  14  86 S7        29.70S WCI   8
ARBOR VITAE    LGT SNOW  19  15  85 S7        29.71F
EAGLE RIVER    LGT SNOW  18  12  78 S6        29.73F WCI  10
LAND O LAKES   LGT SNOW  20  14  79 S7        29.72F
RHINELANDER    LGT SNOW  17  13  84 SE8       29.73F VSB 1   WCI   7
PHILLIPS       LGT SNOW  19  17  92 SE5       29.71R
ANTIGO         LGT SNOW  16  13  88 S14       29.78S VSB 3/4 WCI   1
TOMAHAWK       LGT SNOW  17  14  88 CALM      29.74S
MERRILL        LGT SNOW  18  15  89 SE10      29.75F WCI   6
$$

WIZ013-073-261900-
NORTHEAST WISCONSIN

CITY           SKY/WX    TMP DP  RH WIND       PRES   REMARKS
IRON MOUNTAIN  LGT SNOW  17  12  80 SE7       29.81F WCI   8
MARINETTE      CLOUDY    23  18  80 S7        29.88F
OCONTO         CLOUDY    23  19  85 CALM      29.88F
$$

WIZ017-030-035>037-045-261900-
CENTRAL WISCONSIN

CITY           SKY/WX    TMP DP  RH WIND       PRES   REMARKS
MEDFORD        LGT SNOW  18  16  90 SE7       29.73S WCI   9
WAUSAU         LGT SNOW  18  14  84 SE10      29.76F FOG     WCI   6
MOSINEE        LGT SNOW  18  18 100 SE10      29.78S VSB 1   WCI   6
MARSHFIELD     MIX PCPN  20  17  88 SE10      29.75F FOG     WCI   9
WISC RAPIDS    LGT SNOW  20  16  84 SE7       29.80S FOG
STEVENS POINT  MIX PCPN  18  15  88 SE6       29.80F WCI  10
WAUPACA        LGT SNOW  23  19  82 SE7       29.84S VSB 1
SHAWANO        LGT SNOW  24  18  77 SE7       29.85F
CLINTONVILLE   LGT SNOW  23  18  80 SE8       29.84F VSB 1
$$

WIZ038-039-048-051-261900-
FOX VALLEY

CITY           SKY/WX    TMP DP  RH WIND       PRES   REMARKS
NWS GREEN BAY  CLOUDY    25  17  72 S9        29.88S
APPLETON       LGT SNOW  23  16  74 SE9       29.85S VSB 1
OSHKOSH        LGT SNOW  24  17  74 S15       29.85F
FOND DU LAC    LGT SNOW  25  17  72 S13       29.85F
$$

WIZ022-050-052-261900-
EAST CENTRAL WISCONSIN

CITY           SKY/WX    TMP DP  RH WIND       PRES   REMARKS
STURGEON BAY   CLOUDY    25  18  74 S10       29.90F
MANITOWOC      CLOUDY    27  20  75 S12       29.89F
SHEBOYGAN      CLOUDY    27  17  66 S9        29.87F
$$

LMZ563-521-522-541>543-261900-
LAKESHORE

STATION/POSITION TIME  TEMP    WIND        PRES    VSBY  WAVE
                       AIR SEA DIR/SP/G                  HT/PER
                 (UTC) (F)     (DEG/KT/KT) (MB)    (MI)  (FT/S)
SHEBOYGAN LKSHOR 1800   26     180/ 14/ 17 1013.0F
KEWAUNEE LKSHORE 1800   26     180/ 12/ 15 1011.6S
NORTHPORT PIER   1800   25     160/ 10/ 16 1012.9S
SISTER BAY LKSHO 1700   26     170/  7/  9   N/A
CHAMBERS ISLAND  1800   24     170/  4/  7 1012.9S
MENOMINEE LKSHOR 1800   23     190/  6/ 10 1013.0F
$$



USA.gov is the U.S. government's official web portal to all federal, state and local government web resources and services.